Weather History for Banff, AB

Change the Weather History Date:

Thursday, November 28, 2013

  Actual Average Record
Temperature  
Mean Temperature 23 °F -  
Max Temperature 31 °F - - ()
Min Temperature 16 °F - - ()
Degree Days  
Heating Degree Days 42    
Moisture  
Dew Point 19 °F    
Average Humidity 80    
Maximum Humidity 88    
Minimum Humidity 67    
Precipitation  
Precipitation 0.00 in - - ()
Sea Level Pressure  
Sea Level Pressure 30.14 in    
Wind  
Wind Speed 7 mph ()    
Max Wind Speed 14 mph    
Max Gust Speed 22 mph    
T = Trace of Precipitation, MM = Missing Value Source: Averaged Metar Reports

Daily Weather History Graph

Daily Weather History Graph

Search for Another Location

Airport:

Trip Planner

Search our weather history database for the weather conditions in past years. The results will help you decide how hot, cold, wet, or windy it might be!

Date:

Astronomy

Nov. 28, 2013 Rise Set
Actual Time 8:20 AM MST 4:39 PM MST
Civil Twilight 7:42 AM MST 5:18 PM MST
Nautical Twilight 7:00 AM MST 5:59 PM MST
Astronomical Twilight 6:20 AM MST 6:39 PM MST
Moon 2:57 AM MST (11/28) 2:18 PM MST (11/28)
Length of Visible Light 9h 36m
Length of Day
8h 19m
Waning Crescent, 22% of the Moon is Illuminated
Nov 28
Waning Crescent
Dec 2
New
Dec 9
First Quarter
Dec 17
Full
Dec 25
Last Quarter

Hourly Weather History & Observations

Time (MST) Temp. Windchill Dew Point Humidity Pressure Visibility Wind Dir Wind Speed Gust Speed Precip Events Conditions
12:00 AM 19.2 °F 11.3 °F 15.8 °F 87% 30.26 in - SSW 5.8 mph - N/A   Unknown
1:00 AM 19.6 °F 11.7 °F 16.0 °F 86% 30.24 in - WSW 5.8 mph - N/A   Unknown
2:00 AM 18.0 °F 11.1 °F 15.1 °F 88% 30.23 in - SW 4.6 mph - N/A   Unknown
3:00 AM 18.0 °F 9.8 °F 14.5 °F 86% 30.23 in - WSW 5.8 mph - N/A   Unknown
4:00 AM 18.3 °F 8.2 °F 14.9 °F 86% 30.22 in - WSW 8.1 mph - N/A   Unknown
5:00 AM 17.6 °F 8.2 °F 14.0 °F 86% 30.22 in - WSW 6.9 mph - N/A   Unknown
6:00 AM 18.3 °F 6.6 °F 14.7 °F 86% 30.20 in - WSW 10.4 mph 18.4 mph N/A   Unknown
7:00 AM 16.5 °F 6.9 °F 13.1 °F 86% 30.20 in - WSW 6.9 mph - N/A   Unknown
8:00 AM 18.1 °F 10.0 °F 15.3 °F 88% 30.19 in - West 5.8 mph - N/A   Unknown
9:00 AM 17.4 °F 10.4 °F 13.8 °F 86% 30.18 in - West 4.6 mph - N/A   Unknown
10:00 AM 19.4 °F 11.5 °F 14.9 °F 83% 30.16 in - West 5.8 mph - N/A   Unknown
11:00 AM 23.2 °F 14.1 °F 15.1 °F 71% 30.13 in - WSW 8.1 mph 17.3 mph N/A   Unknown
12:00 PM 25.0 °F 16.3 °F 17.8 °F 74% 30.09 in - WSW 8.1 mph - N/A   Unknown
1:00 PM 28.8 °F 17.9 °F 19.9 °F 70% 30.07 in - SW 13.8 mph 21.9 mph N/A   Unknown
2:00 PM 30.4 °F 20.5 °F 20.5 °F 67% 30.06 in - SW 12.7 mph 20.7 mph N/A   Unknown
3:00 PM 29.8 °F 20.9 °F 21.9 °F 72% 30.07 in - WSW 10.4 mph 19.6 mph N/A   Unknown
4:00 PM 30.0 °F 21.1 °F 22.8 °F 75% 30.05 in - SW 10.4 mph 18.4 mph N/A   Unknown
5:00 PM 30.7 °F 22.6 °F 23.5 °F 75% 30.05 in - WSW 9.2 mph 18.4 mph N/A   Unknown
6:00 PM 30.7 °F 23.3 °F 23.9 °F 76% 30.06 in - WSW 8.1 mph - N/A   Unknown
7:00 PM 30.7 °F 22.0 °F 24.1 °F 76% 30.07 in - WSW 10.4 mph - N/A   Unknown
8:00 PM 30.7 °F 22.6 °F 24.4 °F 77% 30.08 in - SW 9.2 mph - N/A   Unknown
9:00 PM 30.6 °F 22.4 °F 24.6 °F 79% 30.08 in - SW 9.2 mph - N/A   Unknown
10:00 PM 30.9 °F 23.5 °F 25.0 °F 79% 30.08 in - SW 8.1 mph - N/A   Unknown
11:00 PM 31.3 °F 23.9 °F 25.5 °F 79% 30.08 in - SW 8.1 mph - N/A   Unknown